Data supplied by UK-AIR on 29/4/2016
All Data GMT hour ending 
Status: R =Ratified P=Provisional,P*=As supplied
,,Dumbarton Roadside,,,,,,,,,,,,,,,,,,,,,,,
Date,time,"Nitric oxide",status,unit,"Nitrogen dioxide",status,unit,"Nitrogen oxides as nitrogen dioxide",status,unit
 
01-01-2015,01:00,0.59247,R,ugm-3,1.87935,R,ugm-3,2.78779,R,ugm-3
01-01-2015,02:00,,,,,,,,,
01-01-2015,03:00,0.60307,R,ugm-3,2.47908,R,ugm-3,3.40377,R,ugm-3
01-01-2015,04:00,0.53946,R,ugm-3,1.55534,R,ugm-3,2.38250,R,ugm-3
01-01-2015,05:00,0.53946,R,ugm-3,1.45780,R,ugm-3,2.28496,R,ugm-3
01-01-2015,06:00,0.60307,R,ugm-3,1.65240,R,ugm-3,2.57709,R,ugm-3
01-01-2015,07:00,0.38105,R,ugm-3,1.89577,R,ugm-3,2.48003,R,ugm-3
01-01-2015,08:00,0.66668,R,ugm-3,0.97155,R,ugm-3,1.99378,R,ugm-3
01-01-2015,09:00,0.57158,R,ugm-3,1.94358,R,ugm-3,2.81998,R,ugm-3
01-01-2015,10:00,0.57126,R,ugm-3,1.50657,R,ugm-3,2.38250,R,ugm-3
01-01-2015,11:00,0.53977,R,ugm-3,1.21444,R,ugm-3,2.04207,R,ugm-3
01-01-2015,12:00,0.34893,R,ugm-3,0.82668,R,ugm-3,1.36170,R,ugm-3
01-01-2015,13:00,0.63488,R,ugm-3,1.36027,R,ugm-3,2.33373,R,ugm-3
01-01-2015,14:00,0.53977,R,ugm-3,1.16567,R,ugm-3,1.99330,R,ugm-3
01-01-2015,15:00,0.50796,R,ugm-3,1.26321,R,ugm-3,2.04207,R,ugm-3
01-01-2015,16:00,0.53946,R,ugm-3,1.94453,R,ugm-3,2.77169,R,ugm-3
01-01-2015,17:00,0.57158,R,ugm-3,1.60363,R,ugm-3,2.48003,R,ugm-3
01-01-2015,18:00,0.57158,R,ugm-3,1.36074,R,ugm-3,2.23715,R,ugm-3
01-01-2015,19:00,0.60307,R,ugm-3,2.09036,R,ugm-3,3.01506,R,ugm-3
01-01-2015,20:00,0.76210,R,ugm-3,1.70021,R,ugm-3,2.86875,R,ugm-3
01-01-2015,21:00,1.20614,R,ugm-3,1.16567,R,ugm-3,3.01506,R,ugm-3
01-01-2015,22:00,1.17433,R,ugm-3,1.31150,R,ugm-3,3.11212,R,ugm-3
01-01-2015,23:00,1.07923,R,ugm-3,1.89481,R,ugm-3,3.54960,R,ugm-3
01-01-2015,24:00,1.17465,R,ugm-3,1.35979,R,ugm-3,3.16088,R,ugm-3
02-01-2015,01:00,0.71928,R,ugm-3,0.77903,R,ugm-3,1.88190,R,ugm-3
02-01-2015,02:00,,,,,,,,,
02-01-2015,03:00,1.07923,R,ugm-3,1.84939,R,ugm-3,3.50418,R,ugm-3
02-01-2015,04:00,0.98412,R,ugm-3,1.31437,R,ugm-3,2.82333,R,ugm-3
02-01-2015,05:00,0.63488,R,ugm-3,0.97346,R,ugm-3,1.94693,R,ugm-3
02-01-2015,06:00,1.55538,R,ugm-3,1.46067,R,ugm-3,3.84556,R,ugm-3
02-01-2015,07:00,1.11103,R,ugm-3,1.11977,R,ugm-3,2.82333,R,ugm-3
02-01-2015,08:00,1.99973,R,ugm-3,2.62825,R,ugm-3,5.69447,R,ugm-3
02-01-2015,09:00,1.39698,R,ugm-3,1.75185,R,ugm-3,3.89385,R,ugm-3
02-01-2015,10:00,3.20587,R,ugm-3,4.28352,R,ugm-3,9.19913,R,ugm-3
02-01-2015,11:00,8.09467,R,ugm-3,12.02245,R,ugm-3,24.43410,R,ugm-3
02-01-2015,12:00,15.20521,R,ugm-3,18.20318,R,ugm-3,41.51751,R,ugm-3
02-01-2015,13:00,10.03141,R,ugm-3,13.33586,R,ugm-3,28.71714,R,ugm-3
02-01-2015,14:00,12.98315,R,ugm-3,17.13313,R,ugm-3,37.04034,R,ugm-3
02-01-2015,15:00,12.50699,R,ugm-3,16.88977,R,ugm-3,36.06688,R,ugm-3
02-01-2015,16:00,19.45913,R,ugm-3,25.40756,R,ugm-3,55.24448,R,ugm-3
02-01-2015,17:00,5.93590,R,ugm-3,12.46089,R,ugm-3,21.56248,R,ugm-3
02-01-2015,18:00,1.26975,R,ugm-3,2.96916,R,ugm-3,4.91608,R,ugm-3
02-01-2015,19:00,0.92051,R,ugm-3,1.89863,R,ugm-3,3.31006,R,ugm-3
02-01-2015,20:00,0.82540,R,ugm-3,1.55773,R,ugm-3,2.82333,R,ugm-3
02-01-2015,21:00,0.95231,R,ugm-3,0.87593,R,ugm-3,2.33612,R,ugm-3
02-01-2015,22:00,0.69818,R,ugm-3,0.48721,R,ugm-3,1.55773,R,ugm-3
02-01-2015,23:00,0.88901,R,ugm-3,0.38919,R,ugm-3,1.75233,R,ugm-3
02-01-2015,24:00,0.76210,R,ugm-3,0.19460,R,ugm-3,1.36313,R,ugm-3
03-01-2015,01:00,0.55006,R,ugm-3,0.58459,R,ugm-3,1.42800,R,ugm-3
03-01-2015,02:00,,,,,,,,,
03-01-2015,03:00,0.88870,R,ugm-3,2.19077,R,ugm-3,3.55343,R,ugm-3
03-01-2015,04:00,2.31748,R,ugm-3,5.45158,R,ugm-3,9.00501,R,ugm-3
03-01-2015,05:00,2.25387,R,ugm-3,6.61916,R,ugm-3,10.07505,R,ugm-3
03-01-2015,06:00,4.88817,R,ugm-3,7.93401,R,ugm-3,15.42909,R,ugm-3
03-01-2015,07:00,14.98288,R,ugm-3,38.25765,R,ugm-3,61.23108,R,ugm-3
03-01-2015,08:00,15.23733,R,ugm-3,40.10656,R,ugm-3,63.47014,R,ugm-3
03-01-2015,09:00,60.05937,R,ugm-3,59.18614,R,ugm-3,151.27588,R,ugm-3
03-01-2015,10:00,102.31041,R,ugm-3,73.59348,R,ugm-3,230.46725,R,ugm-3
03-01-2015,11:00,138.62523,R,ugm-3,73.69054,R,ugm-3,286.24627,R,ugm-3
03-01-2015,12:00,20.25241,R,ugm-3,30.27440,R,ugm-3,61.32766,R,ugm-3
03-01-2015,13:00,34.15638,R,ugm-3,40.59329,R,ugm-3,92.96567,R,ugm-3
03-01-2015,14:00,33.77564,R,ugm-3,45.16799,R,ugm-3,96.95658,R,ugm-3
03-01-2015,15:00,38.41029,R,ugm-3,49.11013,R,ugm-3,108.00509,R,ugm-3
03-01-2015,16:00,18.34747,R,ugm-3,42.44363,R,ugm-3,70.57603,R,ugm-3
03-01-2015,17:00,36.98182,R,ugm-3,52.61527,R,ugm-3,109.31993,R,ugm-3
03-01-2015,18:00,57.39264,R,ugm-3,62.93464,R,ugm-3,150.93546,R,ugm-3
03-01-2015,19:00,44.94957,R,ugm-3,60.25618,R,ugm-3,129.17790,R,ugm-3
03-01-2015,20:00,61.39273,R,ugm-3,72.66831,R,ugm-3,166.80251,R,ugm-3
03-01-2015,21:00,8.09467,R,ugm-3,38.74438,R,ugm-3,51.15603,R,ugm-3
03-01-2015,22:00,40.06047,R,ugm-3,58.21315,R,ugm-3,119.63835,R,ugm-3
03-01-2015,23:00,66.34451,R,ugm-3,57.77519,R,ugm-3,159.50202,R,ugm-3
03-01-2015,24:00,47.04441,R,ugm-3,50.66882,R,ugm-3,122.80258,R,ugm-3
04-01-2015,01:00,41.01289,R,ugm-3,47.82908,R,ugm-3,110.71463,R,ugm-3
04-01-2015,02:00,,,,,,,,,
04-01-2015,03:00,35.39463,R,ugm-3,45.41183,R,ugm-3,99.68285,R,ugm-3
04-01-2015,04:00,4.53955,R,ugm-3,17.95981,R,ugm-3,24.92035,R,ugm-3
04-01-2015,05:00,4.66646,R,ugm-3,11.04851,R,ugm-3,18.20365,R,ugm-3
04-01-2015,06:00,1.26975,R,ugm-3,4.86731,R,ugm-3,6.81424,R,ugm-3
04-01-2015,07:00,3.30160,R,ugm-3,11.63278,R,ugm-3,16.69517,R,ugm-3
04-01-2015,08:00,8.63443,R,ugm-3,17.08484,R,ugm-3,30.32412,R,ugm-3
04-01-2015,09:00,5.39644,R,ugm-3,18.93375,R,ugm-3,27.20818,R,ugm-3
04-01-2015,10:00,21.01451,R,ugm-3,38.11087,R,ugm-3,70.33267,R,ugm-3
04-01-2015,11:00,5.87260,R,ugm-3,16.64688,R,ugm-3,25.65141,R,ugm-3
04-01-2015,12:00,2.85694,R,ugm-3,11.68203,R,ugm-3,16.06261,R,ugm-3
04-01-2015,13:00,1.99973,R,ugm-3,7.30145,R,ugm-3,10.36766,R,ugm-3
04-01-2015,14:00,1.07923,R,ugm-3,2.96916,R,ugm-3,4.62395,R,ugm-3
04-01-2015,15:00,1.33336,R,ugm-3,3.45541,R,ugm-3,5.49987,R,ugm-3
04-01-2015,16:00,11.68159,R,ugm-3,14.55365,R,ugm-3,32.46517,R,ugm-3
04-01-2015,17:00,4.60316,R,ugm-3,9.53955,R,ugm-3,16.59763,R,ugm-3
04-01-2015,18:00,1.84133,R,ugm-3,8.17689,R,ugm-3,11.00022,R,ugm-3
04-01-2015,19:00,2.03185,R,ugm-3,7.73845,R,ugm-3,10.85392,R,ugm-3
04-01-2015,20:00,1.36517,R,ugm-3,5.35357,R,ugm-3,7.44680,R,ugm-3
04-01-2015,21:00,12.41157,R,ugm-3,24.82377,R,ugm-3,43.85458,R,ugm-3
04-01-2015,22:00,2.38078,R,ugm-3,8.17737,R,ugm-3,11.82786,R,ugm-3
04-01-2015,23:00,0.69849,R,ugm-3,1.65431,R,ugm-3,2.72531,R,ugm-3
04-01-2015,24:00,1.14253,R,ugm-3,3.45637,R,ugm-3,5.20822,R,ugm-3
05-01-2015,01:00,2.07426,R,ugm-3,7.07370,R,ugm-3,10.25419,R,ugm-3
05-01-2015,02:00,,,,,,,,,
05-01-2015,03:00,0.76179,R,ugm-3,3.35883,R,ugm-3,4.52689,R,ugm-3
05-01-2015,04:00,0.88870,R,ugm-3,3.21252,R,ugm-3,4.57518,R,ugm-3
05-01-2015,05:00,1.39666,R,ugm-3,5.69495,R,ugm-3,7.83647,R,ugm-3
05-01-2015,06:00,0.50765,R,ugm-3,3.40760,R,ugm-3,4.18598,R,ugm-3
05-01-2015,07:00,8.03137,R,ugm-3,14.94284,R,ugm-3,27.25743,R,ugm-3
05-01-2015,08:00,12.03083,R,ugm-3,26.38055,R,ugm-3,44.82757,R,ugm-3
05-01-2015,09:00,8.50721,R,ugm-3,15.52711,R,ugm-3,28.57132,R,ugm-3
05-01-2015,10:00,2.25387,R,ugm-3,9.10159,R,ugm-3,12.55748,R,ugm-3
05-01-2015,11:00,3.11077,R,ugm-3,9.97799,R,ugm-3,14.74777,R,ugm-3
05-01-2015,12:00,1.20645,R,ugm-3,5.01314,R,ugm-3,6.86301,R,ugm-3
05-01-2015,13:00,1.42816,R,ugm-3,4.42983,R,ugm-3,6.61964,R,ugm-3
05-01-2015,14:00,1.07954,R,ugm-3,4.33133,R,ugm-3,5.98660,R,ugm-3
05-01-2015,15:00,1.52358,R,ugm-3,4.23428,R,ugm-3,6.57039,R,ugm-3
05-01-2015,16:00,1.42878,R,ugm-3,4.72101,R,ugm-3,6.91178,R,ugm-3
05-01-2015,17:00,1.30156,R,ugm-3,4.52641,R,ugm-3,6.52210,R,ugm-3
05-01-2015,18:00,0.92082,R,ugm-3,2.82285,R,ugm-3,4.23475,R,ugm-3
05-01-2015,19:00,0.72967,R,ugm-3,3.31006,R,ugm-3,4.42887,R,ugm-3
05-01-2015,20:00,0.34924,R,ugm-3,1.89768,R,ugm-3,2.43318,R,ugm-3
05-01-2015,21:00,0.73029,R,ugm-3,1.41190,R,ugm-3,2.53167,R,ugm-3
05-01-2015,22:00,0.60276,R,ugm-3,1.99569,R,ugm-3,2.91991,R,ugm-3
05-01-2015,23:00,2.19057,R,ugm-3,7.15466,R,ugm-3,10.51349,R,ugm-3
05-01-2015,24:00,0.63488,R,ugm-3,1.36266,R,ugm-3,2.33612,R,ugm-3
06-01-2015,01:00,0.67728,R,ugm-3,1.23293,R,ugm-3,2.27141,R,ugm-3
06-01-2015,02:00,,,,,,,,,
06-01-2015,03:00,0.44435,R,ugm-3,2.28735,R,ugm-3,2.96868,R,ugm-3
06-01-2015,04:00,0.44404,R,ugm-3,1.21731,R,ugm-3,1.89816,R,ugm-3
06-01-2015,05:00,0.60307,R,ugm-3,1.07100,R,ugm-3,1.99569,R,ugm-3
06-01-2015,06:00,1.30125,R,ugm-3,2.23954,R,ugm-3,4.23475,R,ugm-3
06-01-2015,07:00,8.69805,R,ugm-3,11.77813,R,ugm-3,25.11495,R,ugm-3
06-01-2015,08:00,22.79191,R,ugm-3,27.79245,R,ugm-3,62.73956,R,ugm-3
06-01-2015,09:00,38.44147,R,ugm-3,45.02312,R,ugm-3,103.96589,R,ugm-3
06-01-2015,10:00,27.36327,R,ugm-3,34.99540,R,ugm-3,76.95183,R,ugm-3
06-01-2015,11:00,23.49009,R,ugm-3,32.07597,R,ugm-3,68.09361,R,ugm-3
06-01-2015,12:00,28.56941,R,ugm-3,38.01381,R,ugm-3,81.81962,R,ugm-3
06-01-2015,13:00,27.14125,R,ugm-3,35.77427,R,ugm-3,77.39027,R,ugm-3
06-01-2015,14:00,7.45948,R,ugm-3,14.50488,R,ugm-3,25.94258,R,ugm-3
06-01-2015,15:00,3.87256,R,ugm-3,8.46951,R,ugm-3,14.40734,R,ugm-3
06-01-2015,16:00,5.23773,R,ugm-3,9.34543,R,ugm-3,17.37650,R,ugm-3
06-01-2015,17:00,1.77771,R,ugm-3,6.32751,R,ugm-3,9.05330,R,ugm-3
06-01-2015,18:00,3.71384,R,ugm-3,10.17259,R,ugm-3,15.86706,R,ugm-3
06-01-2015,19:00,5.52367,R,ugm-3,9.87998,R,ugm-3,18.34948,R,ugm-3
06-01-2015,20:00,1.61868,R,ugm-3,5.84078,R,ugm-3,8.32272,R,ugm-3
06-01-2015,21:00,3.74564,R,ugm-3,9.92970,R,ugm-3,15.67294,R,ugm-3
06-01-2015,22:00,0.63456,R,ugm-3,1.75233,R,ugm-3,2.72531,R,ugm-3
06-01-2015,23:00,0.44435,R,ugm-3,2.48290,R,ugm-3,3.16423,R,ugm-3
06-01-2015,24:00,0.63519,R,ugm-3,4.38058,R,ugm-3,5.35452,R,ugm-3
07-01-2015,01:00,0.38126,R,ugm-3,3.76316,R,ugm-3,4.34775,R,ugm-3
07-01-2015,02:00,,,,,,,,,
07-01-2015,03:00,0.76148,R,ugm-3,3.55390,R,ugm-3,4.72148,R,ugm-3
07-01-2015,04:00,0.34924,R,ugm-3,2.28735,R,ugm-3,2.82285,R,ugm-3
07-01-2015,05:00,0.47616,R,ugm-3,1.89863,R,ugm-3,2.62873,R,ugm-3
07-01-2015,06:00,0.63488,R,ugm-3,1.60650,R,ugm-3,2.57996,R,ugm-3
07-01-2015,07:00,0.63488,R,ugm-3,1.31389,R,ugm-3,2.28735,R,ugm-3
07-01-2015,08:00,1.07923,R,ugm-3,1.80110,R,ugm-3,3.45589,R,ugm-3
07-01-2015,09:00,1.80952,R,ugm-3,3.16375,R,ugm-3,5.93831,R,ugm-3
07-01-2015,10:00,1.23795,R,ugm-3,3.01840,R,ugm-3,4.91656,R,ugm-3
07-01-2015,11:00,1.07923,R,ugm-3,2.92039,R,ugm-3,4.57518,R,ugm-3
07-01-2015,12:00,0.85690,R,ugm-3,2.96963,R,ugm-3,4.28352,R,ugm-3
07-01-2015,13:00,1.30125,R,ugm-3,3.89433,R,ugm-3,5.88954,R,ugm-3
07-01-2015,14:00,1.84102,R,ugm-3,4.57566,R,ugm-3,7.39851,R,ugm-3
07-01-2015,15:00,1.87282,R,ugm-3,4.23475,R,ugm-3,7.10637,R,ugm-3
07-01-2015,16:00,0.76210,R,ugm-3,3.50370,R,ugm-3,4.67224,R,ugm-3
07-01-2015,17:00,0.82509,R,ugm-3,3.40712,R,ugm-3,4.67224,R,ugm-3
07-01-2015,18:00,2.06366,R,ugm-3,3.06622,R,ugm-3,6.23045,R,ugm-3
07-01-2015,19:00,3.80925,R,ugm-3,6.08414,R,ugm-3,11.92492,R,ugm-3
07-01-2015,20:00,2.06335,R,ugm-3,3.69925,R,ugm-3,6.86301,R,ugm-3
07-01-2015,21:00,1.14284,R,ugm-3,1.60602,R,ugm-3,3.35835,R,ugm-3
07-01-2015,22:00,0.88870,R,ugm-3,1.21683,R,ugm-3,2.57948,R,ugm-3
07-01-2015,23:00,0.57126,R,ugm-3,0.77839,R,ugm-3,1.65431,R,ugm-3
07-01-2015,24:00,0.92082,R,ugm-3,1.26560,R,ugm-3,2.67750,R,ugm-3
08-01-2015,01:00,0.80492,R,ugm-3,2.59463,R,ugm-3,3.82883,R,ugm-3
08-01-2015,02:00,,,,,,,,,
08-01-2015,03:00,0.76272,R,ugm-3,1.06909,R,ugm-3,2.23858,R,ugm-3
08-01-2015,04:00,0.57189,R,ugm-3,1.65383,R,ugm-3,2.53072,R,ugm-3
08-01-2015,05:00,1.20739,R,ugm-3,0.87449,R,ugm-3,2.72579,R,ugm-3
08-01-2015,06:00,5.27452,R,ugm-3,7.77957,R,ugm-3,15.86706,R,ugm-3
08-01-2015,07:00,15.82387,R,ugm-3,20.12715,R,ugm-3,44.39008,R,ugm-3
08-01-2015,08:00,7.40366,R,ugm-3,11.47548,R,ugm-3,22.82760,R,ugm-3
08-01-2015,09:00,2.70103,R,ugm-3,5.78818,R,ugm-3,9.92970,R,ugm-3
08-01-2015,10:00,2.06522,R,ugm-3,3.59885,R,ugm-3,6.76547,R,ugm-3
08-01-2015,11:00,12.32863,R,ugm-3,14.97248,R,ugm-3,33.87611,R,ugm-3
08-01-2015,12:00,10.67658,R,ugm-3,12.78506,R,ugm-3,29.15558,R,ugm-3
08-01-2015,13:00,7.97555,R,ugm-3,9.96556,R,ugm-3,22.19456,R,ugm-3
08-01-2015,14:00,9.27835,R,ugm-3,12.93280,R,ugm-3,27.15941,R,ugm-3
08-01-2015,15:00,10.86741,R,ugm-3,12.00572,R,ugm-3,28.66885,R,ugm-3
08-01-2015,16:00,6.57764,R,ugm-3,10.50345,R,ugm-3,20.58902,R,ugm-3
08-01-2015,17:00,17.25390,R,ugm-3,29.61554,R,ugm-3,56.07115,R,ugm-3
08-01-2015,18:00,0.92144,R,ugm-3,4.86588,R,ugm-3,6.27874,R,ugm-3
08-01-2015,19:00,0.95325,R,ugm-3,2.18933,R,ugm-3,3.65096,R,ugm-3
08-01-2015,20:00,0.57220,R,ugm-3,3.30863,R,ugm-3,4.18598,R,ugm-3
08-01-2015,21:00,0.76272,R,ugm-3,2.82237,R,ugm-3,3.99187,R,ugm-3
08-01-2015,22:00,0.66762,R,ugm-3,2.43222,R,ugm-3,3.45589,R,ugm-3
08-01-2015,23:00,0.66731,R,ugm-3,1.94597,R,ugm-3,2.96916,R,ugm-3
08-01-2015,24:00,0.60369,R,ugm-3,0.63160,R,ugm-3,1.55725,R,ugm-3
09-01-2015,01:00,0.97456,R,ugm-3,0.64706,R,ugm-3,2.14136,R,ugm-3
09-01-2015,02:00,,,,,,,,,
09-01-2015,03:00,0.79422,R,ugm-3,1.16710,R,ugm-3,2.38489,R,ugm-3
09-01-2015,04:00,0.57220,R,ugm-3,1.02032,R,ugm-3,1.89768,R,ugm-3
09-01-2015,05:00,1.55694,R,ugm-3,1.31198,R,ugm-3,3.69925,R,ugm-3
09-01-2015,06:00,1.74747,R,ugm-3,1.99330,R,ugm-3,4.67272,R,ugm-3
09-01-2015,07:00,4.32127,R,ugm-3,5.49366,R,ugm-3,12.11951,R,ugm-3
09-01-2015,08:00,11.02582,R,ugm-3,11.22685,R,ugm-3,28.13288,R,ugm-3
09-01-2015,09:00,18.33438,R,ugm-3,19.73365,R,ugm-3,47.84597,R,ugm-3
09-01-2015,10:00,18.20715,R,ugm-3,20.95048,R,ugm-3,48.86772,R,ugm-3
09-01-2015,11:00,10.54935,R,ugm-3,14.78028,R,ugm-3,30.95573,R,ugm-3
09-01-2015,12:00,5.05188,R,ugm-3,8.55987,R,ugm-3,16.30598,R,ugm-3
09-01-2015,13:00,2.16032,R,ugm-3,5.44823,R,ugm-3,8.76068,R,ugm-3
09-01-2015,14:00,1.65236,R,ugm-3,4.37819,R,ugm-3,6.91178,R,ugm-3
09-01-2015,15:00,1.74747,R,ugm-3,9.73223,R,ugm-3,12.41165,R,ugm-3
09-01-2015,16:00,8.54744,R,ugm-3,21.79246,R,ugm-3,34.89834,R,ugm-3
09-01-2015,17:00,32.18814,R,ugm-3,42.19931,R,ugm-3,91.55377,R,ugm-3
09-01-2015,18:00,8.64285,R,ugm-3,11.96030,R,ugm-3,25.21249,R,ugm-3
09-01-2015,19:00,4.03564,R,ugm-3,5.05569,R,ugm-3,11.24359,R,ugm-3
09-01-2015,20:00,4.09894,R,ugm-3,4.56896,R,ugm-3,10.85392,R,ugm-3
09-01-2015,21:00,2.00192,R,ugm-3,2.72244,R,ugm-3,5.79201,R,ugm-3
09-01-2015,22:00,1.27100,R,ugm-3,1.11738,R,ugm-3,3.06622,R,ugm-3
09-01-2015,23:00,0.60369,R,ugm-3,0.53454,R,ugm-3,1.46019,R,ugm-3
09-01-2015,24:00,0.50890,R,ugm-3,0.33947,R,ugm-3,1.11977,R,ugm-3
10-01-2015,01:00,0.63571,R,ugm-3,0.19316,R,ugm-3,1.16790,R,ugm-3
10-01-2015,02:00,,,,,,,,,
10-01-2015,03:00,0.69911,R,ugm-3,1.11881,R,ugm-3,2.19077,R,ugm-3
10-01-2015,04:00,0.98506,R,ugm-3,1.45924,R,ugm-3,2.96963,R,ugm-3
10-01-2015,05:00,0.63550,R,ugm-3,0.77791,R,ugm-3,1.75233,R,ugm-3
10-01-2015,06:00,1.17558,R,ugm-3,1.26368,R,ugm-3,3.06622,R,ugm-3
10-01-2015,07:00,2.95517,R,ugm-3,2.72101,R,ugm-3,7.25220,R,ugm-3
10-01-2015,08:00,4.16255,R,ugm-3,4.37389,R,ugm-3,10.75638,R,ugm-3
10-01-2015,09:00,4.95708,R,ugm-3,5.68730,R,ugm-3,13.28805,R,ugm-3
10-01-2015,10:00,5.94183,R,ugm-3,7.04900,R,ugm-3,16.15967,R,ugm-3
10-01-2015,11:00,8.16607,R,ugm-3,9.08916,R,ugm-3,21.61029,R,ugm-3
10-01-2015,12:00,13.94918,R,ugm-3,15.50607,R,ugm-3,36.89452,R,ugm-3
10-01-2015,13:00,16.52298,R,ugm-3,13.99328,R,ugm-3,39.32817,R,ugm-3
10-01-2015,14:00,18.11142,R,ugm-3,20.02674,R,ugm-3,47.79720,R,ugm-3
10-01-2015,15:00,18.93776,R,ugm-3,17.78577,R,ugm-3,46.82326,R,ugm-3
10-01-2015,16:00,18.01631,R,ugm-3,20.17305,R,ugm-3,47.79768,R,ugm-3
10-01-2015,17:00,10.26341,R,ugm-3,13.75900,R,ugm-3,29.49601,R,ugm-3
10-01-2015,18:00,23.13211,R,ugm-3,28.04968,R,ugm-3,63.51843,R,ugm-3
10-01-2015,19:00,11.24815,R,ugm-3,17.84649,R,ugm-3,35.09342,R,ugm-3
10-01-2015,20:00,7.27644,R,ugm-3,11.18382,R,ugm-3,22.34087,R,ugm-3
10-01-2015,21:00,12.67818,R,ugm-3,19.45013,R,ugm-3,38.88973,R,ugm-3
10-01-2015,22:00,2.57380,R,ugm-3,3.98708,R,ugm-3,7.93353,R,ugm-3
10-01-2015,23:00,3.08239,R,ugm-3,4.08367,R,ugm-3,8.80993,R,ugm-3
10-01-2015,24:00,5.52866,R,ugm-3,5.92971,R,ugm-3,14.40686,R,ugm-3
11-01-2015,01:00,1.73707,R,ugm-3,4.67734,R,ugm-3,7.34081,R,ugm-3
11-01-2015,02:00,,,,,,,,,
11-01-2015,03:00,1.43003,R,ugm-3,3.06956,R,ugm-3,5.26224,R,ugm-3
11-01-2015,04:00,2.38328,R,ugm-3,3.11785,R,ugm-3,6.77216,R,ugm-3
11-01-2015,05:00,2.03403,R,ugm-3,2.58140,R,ugm-3,5.70021,R,ugm-3
11-01-2015,06:00,1.43003,R,ugm-3,2.38728,R,ugm-3,4.57996,R,ugm-3
11-01-2015,07:00,1.71566,R,ugm-3,3.26464,R,ugm-3,5.89528,R,ugm-3
11-01-2015,08:00,3.49494,R,ugm-3,6.48051,R,ugm-3,11.83933,R,ugm-3
11-01-2015,09:00,4.89347,R,ugm-3,7.45445,R,ugm-3,14.95766,R,ugm-3
11-01-2015,10:00,5.59227,R,ugm-3,11.01122,R,ugm-3,19.58591,R,ugm-3
11-01-2015,11:00,13.18677,R,ugm-3,20.75493,R,ugm-3,40.97436,R,ugm-3
11-01-2015,12:00,6.86327,R,ugm-3,8.18502,R,ugm-3,18.70855,R,ugm-3
11-01-2015,13:00,3.55886,R,ugm-3,6.04111,R,ugm-3,11.49795,R,ugm-3
11-01-2015,14:00,2.28817,R,ugm-3,3.94597,R,ugm-3,7.45445,R,ugm-3
11-01-2015,15:00,1.93830,R,ugm-3,2.92326,R,ugm-3,5.89528,R,ugm-3
11-01-2015,16:00,1.97042,R,ugm-3,3.36122,R,ugm-3,6.38249,R,ugm-3
11-01-2015,17:00,2.28755,R,ugm-3,3.89768,R,ugm-3,7.40520,R,ugm-3
11-01-2015,18:00,1.46184,R,ugm-3,2.58188,R,ugm-3,4.82333,R,ugm-3
11-01-2015,19:00,0.88964,R,ugm-3,1.46163,R,ugm-3,2.82572,R,ugm-3
11-01-2015,20:00,0.95325,R,ugm-3,0.87736,R,ugm-3,2.33899,R,ugm-3
11-01-2015,21:00,0.47709,R,ugm-3,0.87593,R,ugm-3,1.60746,R,ugm-3
11-01-2015,22:00,0.73092,R,ugm-3,0.87640,R,ugm-3,1.99713,R,ugm-3
11-01-2015,23:00,0.60432,R,ugm-3,0.87593,R,ugm-3,1.80253,R,ugm-3
11-01-2015,24:00,0.22264,R,ugm-3,0.82763,R,ugm-3,1.16902,R,ugm-3
12-01-2015,01:00,0.76252,R,ugm-3,0.64961,R,ugm-3,1.81879,R,ugm-3
12-01-2015,02:00,,,,,,,,,
12-01-2015,03:00,0.50859,R,ugm-3,1.85130,R,ugm-3,2.63112,R,ugm-3
12-01-2015,04:00,0.73061,R,ugm-3,1.07243,R,ugm-3,2.19268,R,ugm-3
12-01-2015,05:00,0.69911,R,ugm-3,0.58427,R,ugm-3,1.65623,R,ugm-3
12-01-2015,06:00,0.57220,R,ugm-3,0.77887,R,ugm-3,1.65623,R,ugm-3
12-01-2015,07:00,1.01655,R,ugm-3,1.21874,R,ugm-3,2.77743,R,ugm-3
12-01-2015,08:00,3.78119,R,ugm-3,4.82380,R,ugm-3,10.62155,R,ugm-3
12-01-2015,09:00,4.06682,R,ugm-3,5.45684,R,ugm-3,11.69255,R,ugm-3
12-01-2015,10:00,2.12883,R,ugm-3,3.60554,R,ugm-3,6.86970,R,ugm-3
12-01-2015,11:00,6.70455,R,ugm-3,8.28256,R,ugm-3,18.56273,R,ugm-3
12-01-2015,12:00,8.32510,R,ugm-3,8.86683,R,ugm-3,21.63181,R,ugm-3
12-01-2015,13:00,3.52705,R,ugm-3,4.72579,R,ugm-3,10.13386,R,ugm-3
12-01-2015,14:00,3.55886,R,ugm-3,5.01792,R,ugm-3,10.47476,R,ugm-3
12-01-2015,15:00,12.29713,R,ugm-3,15.05424,R,ugm-3,33.90958,R,ugm-3
12-01-2015,16:00,2.38266,R,ugm-3,5.55486,R,ugm-3,9.20821,R,ugm-3
12-01-2015,17:00,2.12914,R,ugm-3,5.74850,R,ugm-3,9.01313,R,ugm-3
12-01-2015,18:00,1.04836,R,ugm-3,3.45923,R,ugm-3,5.06669,R,ugm-3
12-01-2015,19:00,0.76272,R,ugm-3,1.85130,R,ugm-3,3.02079,R,ugm-3
12-01-2015,20:00,0.69880,R,ugm-3,2.48482,R,ugm-3,3.55629,R,ugm-3
12-01-2015,21:00,0.76241,R,ugm-3,2.53358,R,ugm-3,3.70260,R,ugm-3
12-01-2015,22:00,1.01655,R,ugm-3,1.99761,R,ugm-3,3.55629,R,ugm-3
12-01-2015,23:00,0.79391,R,ugm-3,1.80253,R,ugm-3,3.01984,R,ugm-3
12-01-2015,24:00,0.88933,R,ugm-3,1.55917,R,ugm-3,2.92278,R,ugm-3
13-01-2015,01:00,1.94870,R,ugm-3,2.59845,R,ugm-3,5.58641,R,ugm-3
13-01-2015,02:00,,,,,,,,,
13-01-2015,03:00,3.27260,R,ugm-3,7.60075,R,ugm-3,12.61868,R,ugm-3
13-01-2015,04:00,1.46184,R,ugm-3,4.14104,R,ugm-3,6.38249,R,ugm-3
13-01-2015,05:00,0.63581,R,ugm-3,1.07148,R,ugm-3,2.04638,R,ugm-3
13-01-2015,06:00,0.57189,R,ugm-3,0.87736,R,ugm-3,1.75424,R,ugm-3
13-01-2015,07:00,3.68577,R,ugm-3,4.48194,R,ugm-3,10.13338,R,ugm-3
13-01-2015,08:00,1.84320,R,ugm-3,2.97155,R,ugm-3,5.79774,R,ugm-3
13-01-2015,09:00,9.46919,R,ugm-3,15.63947,R,ugm-3,30.15869,R,ugm-3
13-01-2015,10:00,14.80732,R,ugm-3,14.32367,R,ugm-3,37.02791,R,ugm-3
13-01-2015,11:00,2.51019,R,ugm-3,5.60315,R,ugm-3,9.45205,R,ugm-3
13-01-2015,12:00,4.00352,R,ugm-3,6.28543,R,ugm-3,12.42408,R,ugm-3
13-01-2015,13:00,2.19244,R,ugm-3,3.94644,R,ugm-3,7.30814,R,ugm-3
13-01-2015,14:00,1.58906,R,ugm-3,2.97107,R,ugm-3,5.40759,R,ugm-3
13-01-2015,15:00,2.66922,R,ugm-3,4.09227,R,ugm-3,8.18502,R,ugm-3
13-01-2015,16:00,1.81139,R,ugm-3,4.77456,R,ugm-3,7.55198,R,ugm-3
13-01-2015,17:00,4.70232,R,ugm-3,7.64952,R,ugm-3,14.85965,R,ugm-3
13-01-2015,18:00,21.09870,R,ugm-3,26.26054,R,ugm-3,58.61143,R,ugm-3
13-01-2015,19:00,1.27100,R,ugm-3,2.97203,R,ugm-3,4.92086,R,ugm-3
13-01-2015,20:00,1.90619,R,ugm-3,3.45971,R,ugm-3,6.38249,R,ugm-3
13-01-2015,21:00,6.60913,R,ugm-3,7.11354,R,ugm-3,17.24740,R,ugm-3
13-01-2015,22:00,0.95294,R,ugm-3,1.90103,R,ugm-3,3.36218,R,ugm-3
13-01-2015,23:00,0.92144,R,ugm-3,1.31532,R,ugm-3,2.72818,R,ugm-3
13-01-2015,24:00,0.41317,R,ugm-3,0.53550,R,ugm-3,1.16902,R,ugm-3
14-01-2015,01:00,0.63529,R,ugm-3,0.52020,R,ugm-3,1.49430,R,ugm-3
14-01-2015,02:00,,,,,,,,,
14-01-2015,03:00,4.95677,R,ugm-3,3.70308,R,ugm-3,11.30335,R,ugm-3
14-01-2015,04:00,0.79422,R,ugm-3,1.80301,R,ugm-3,3.02079,R,ugm-3
14-01-2015,05:00,1.08016,R,ugm-3,1.31628,R,ugm-3,2.97250,R,ugm-3
14-01-2015,06:00,1.08047,R,ugm-3,2.33851,R,ugm-3,3.99521,R,ugm-3
14-01-2015,07:00,1.27100,R,ugm-3,4.57948,R,ugm-3,6.52832,R,ugm-3
14-01-2015,08:00,1.17558,R,ugm-3,3.65383,R,ugm-3,5.45636,R,ugm-3
14-01-2015,09:00,1.84320,R,ugm-3,3.26368,R,ugm-3,6.08988,R,ugm-3
14-01-2015,10:00,1.33430,R,ugm-3,2.63112,R,ugm-3,4.67702,R,ugm-3
14-01-2015,11:00,1.84289,R,ugm-3,2.82620,R,ugm-3,5.65192,R,ugm-3
14-01-2015,12:00,1.84289,R,ugm-3,3.94692,R,ugm-3,6.77264,R,ugm-3
14-01-2015,13:00,1.23919,R,ugm-3,2.53406,R,ugm-3,4.43413,R,ugm-3
14-01-2015,14:00,1.30281,R,ugm-3,2.53311,R,ugm-3,4.53071,R,ugm-3
14-01-2015,15:00,1.81077,R,ugm-3,6.09036,R,ugm-3,8.86683,R,ugm-3
14-01-2015,16:00,1.43003,R,ugm-3,5.35883,R,ugm-3,7.55151,R,ugm-3
14-01-2015,17:00,12.26533,R,ugm-3,22.45992,R,ugm-3,41.26649,R,ugm-3
14-01-2015,18:00,9.75482,R,ugm-3,31.81492,R,ugm-3,46.77210,R,ugm-3
14-01-2015,19:00,1.30281,R,ugm-3,7.55198,R,ugm-3,9.54959,R,ugm-3
14-01-2015,20:00,1.01655,R,ugm-3,3.65431,R,ugm-3,5.21300,R,ugm-3
14-01-2015,21:00,0.95294,R,ugm-3,3.55725,R,ugm-3,5.01840,R,ugm-3
14-01-2015,22:00,0.79422,R,ugm-3,4.09275,R,ugm-3,5.31053,R,ugm-3
14-01-2015,23:00,0.76272,R,ugm-3,2.82572,R,ugm-3,3.99521,R,ugm-3
14-01-2015,24:00,0.60401,R,ugm-3,0.87640,R,ugm-3,1.80253,R,ugm-3
15-01-2015,01:00,0.46649,R,ugm-3,0.71336,R,ugm-3,1.42864,R,ugm-3
15-01-2015,02:00,,,,,,,,,
15-01-2015,03:00,0.57220,R,ugm-3,1.02271,R,ugm-3,1.90007,R,ugm-3
15-01-2015,04:00,0.60432,R,ugm-3,0.92469,R,ugm-3,1.85130,R,ugm-3
15-01-2015,05:00,0.69911,R,ugm-3,0.38919,R,ugm-3,1.46115,R,ugm-3
15-01-2015,06:00,1.01686,R,ugm-3,0.34090,R,ugm-3,1.90007,R,ugm-3
15-01-2015,07:00,0.41348,R,ugm-3,0.58379,R,ugm-3,1.21778,R,ugm-3
15-01-2015,08:00,0.69911,R,ugm-3,1.07148,R,ugm-3,2.14343,R,ugm-3
15-01-2015,09:00,1.17558,R,ugm-3,1.94884,R,ugm-3,3.75137,R,ugm-3
15-01-2015,10:00,0.63581,R,ugm-3,1.51040,R,ugm-3,2.48529,R,ugm-3
15-01-2015,11:00,0.98474,R,ugm-3,1.46211,R,ugm-3,2.97203,R,ugm-3
15-01-2015,12:00,1.11197,R,ugm-3,1.16949,R,ugm-3,2.87449,R,ugm-3
15-01-2015,13:00,1.04836,R,ugm-3,1.16949,R,ugm-3,2.77695,R,ugm-3
15-01-2015,14:00,2.00129,R,ugm-3,2.63208,R,ugm-3,5.70068,R,ugm-3
15-01-2015,15:00,1.84289,R,ugm-3,2.92373,R,ugm-3,5.74945,R,ugm-3
15-01-2015,16:00,2.09702,R,ugm-3,5.99282,R,ugm-3,9.20821,R,ugm-3
15-01-2015,17:00,2.28786,R,ugm-3,5.50513,R,ugm-3,9.01313,R,ugm-3
15-01-2015,18:00,14.01279,R,ugm-3,17.78290,R,ugm-3,39.26888,R,ugm-3
15-01-2015,19:00,8.83369,R,ugm-3,13.59262,R,ugm-3,27.13742,R,ugm-3
15-01-2015,20:00,7.11741,R,ugm-3,9.06238,R,ugm-3,19.97558,R,ugm-3
15-01-2015,21:00,5.71981,R,ugm-3,7.06430,R,ugm-3,15.83454,R,ugm-3
15-01-2015,22:00,6.00513,R,ugm-3,6.72387,R,ugm-3,15.93160,R,ugm-3
15-01-2015,23:00,3.36802,R,ugm-3,3.60554,R,ugm-3,8.76977,R,ugm-3
15-01-2015,24:00,2.66922,R,ugm-3,2.43605,R,ugm-3,6.52880,R,ugm-3
16-01-2015,01:00,2.20315,R,ugm-3,2.14391,R,ugm-3,5.52203,R,ugm-3
16-01-2015,02:00,,,,,,,,,
16-01-2015,03:00,2.82825,R,ugm-3,2.87449,R,ugm-3,7.21108,R,ugm-3
16-01-2015,04:00,4.00352,R,ugm-3,3.41047,R,ugm-3,9.54911,R,ugm-3
16-01-2015,05:00,1.49333,R,ugm-3,3.80062,R,ugm-3,6.09036,R,ugm-3
16-01-2015,06:00,4.16255,R,ugm-3,5.40807,R,ugm-3,11.79056,R,ugm-3
16-01-2015,07:00,14.29874,R,ugm-3,23.43482,R,ugm-3,45.35924,R,ugm-3
16-01-2015,08:00,22.59172,R,ugm-3,28.69706,R,ugm-3,63.33722,R,ugm-3
16-01-2015,09:00,55.63800,R,ugm-3,60.02429,R,ugm-3,145.33470,R,ugm-3